Location: Buckeye Ditch
(40.9104°N, 122.9517°W)
Time: 11:29:18
(UTC+00:00)

Cosmos 1674 - Pass Details

Date: 13 April 2024
Orbit: 439 x 454 km, 82.5° (Epoch: 24 May)

Event Time Altitude Azimuth Distance (km) Brightness Sun altitude
Rises 11:24:09 0° 120° (ESE) 2,420 6.4 -23.1°
Enters shadow 12:30:14 -58° 188° (S) 11,325 9.4 -12.4°
Maximum altitude 13:01:08 73° 278° (W) 464 2.3 -7.0°
